Location: Fornova de Taro
(44.7000°N, 10.1000°E)
Time: 20:48:08
(UTC+00:00)

Cosmos 2228 - Pass Details

Date: 26 May 2022
Orbit: 586 x 617 km, 82.5° (Epoch: 02 July)

Event Time Altitude Azimuth Distance (km) Brightness Sun altitude
Rises 01:57:01 0° 351° (N) 2,892 7.2 -14.7°
Reaches altitude 10° 01:59:15 10° 351° (N) 1,978 6.2 -14.5°
Maximum altitude 02:03:38 89° 268° (W) 615 3.0 -14.0°
Enters shadow 02:07:57 10° 173° (S) 1,939 5.2 -13.5°
